Little Turkey, Iowa
Current Conditions -  °F | °C
As of 5:55 PM on Wednesday 22 Oct 2014 (Local Time) from KDEH Reporting Station
Clear Clear  
Wind Chill: 55°   Ceiling: Unl
Heat Index: 55°   Visibility: 10mi
Dew Point: 37°   Wind: 9mph
Humidity: 51%   Direction: 150°SSE
Pressure: 30.15"   Gusts: 15mph
Location:  43.1036°N, 92.1402°W
Report Text: KDEH 222255Z AUTO 15008G13KT 10SM CLR 13/03 A3015 RMK AO2
Loading
Personal Weather Stations






























Interactive Weather Map
Tropical Storm Tracking
New forecast layout! Learn more

10-Day Weather Forecast

Advertisements
Track Severe Weather on mobile